Leadville, CO

6:46 AM MDT on October 22, 2017 (GMT -0600)
Lake County

Weather History for KLXV - March, 2013

Change the Weather History Date:

Thursday, March 28, 2013

  Actual Average Record
Temperature  
Mean Temperature 28 °F -  
Max Temperature 43 °F 39 °F 52 °F (1986)
Min Temperature 13 °F 14 °F -13 °F (1987)
Degree Days  
Heating Degree Days 37 39  
Month to date heating degree days 1207 1159  
Since 1 July heating degree days 8749 8869  
Cooling Degree Days 0 0  
Month to date cooling degree days 0 0  
Year to date cooling degree days 0 0  
Moisture  
Dew Point 15 °F    
Average Humidity 54    
Maximum Humidity 76    
Minimum Humidity 32    
Precipitation  
Precipitation T in 0.04 in 0.82 in (1993)
Month to date precipitation 1.49 0.84  
Year to date precipitation 3.11 2.16  
Sea Level Pressure  
Sea Level Pressure 30.06 in    
Wind  
Wind Speed 4 mph (NNE)    
Max Wind Speed 18 mph    
Max Gust Speed 24 mph    
Visibility 10 miles    
Events Rain    
T = Trace of Precipitation, MM = Missing Value Source: NWS Daily Summary

Daily Weather History Graph

Daily Weather History Graph

Search for Another Location

Airport or City:

Trip Planner

Search our weather history database for the weather conditions in past years. The results will help you decide how hot, cold, wet, or windy it might be!

Date:

Astronomy

Mar. 28, 2013 Rise Set
Actual Time 6:55 AM MDT 7:25 PM MDT
Civil Twilight 6:28 AM MDT 7:52 PM MDT
Nautical Twilight 5:57 AM MDT 8:24 PM MDT
Astronomical Twilight 5:24 AM MDT 8:56 PM MDT
Moon 9:19 PM MDT (3/28) 7:26 AM MDT (3/28)
Length of Visible Light 13h 23m
Length of Day
12h 29m
Full, 98% of the Moon is Illuminated
Mar 28
Full
Apr 2
Last Quarter
Apr 10
New
Apr 18
First Quarter
Apr 25
Full

Hourly Weather History & Observations

Time (MDT) Temp. Windchill Dew Point Humidity Pressure Visibility Wind Dir Wind Speed Gust Speed Precip Events Conditions
12:53 AM 23.0 °F 17.0 °F 10.0 °F 58% 30.00 in 10.0 mi NE 4.6 mph - N/A   Clear
1:53 AM 19.9 °F 14.9 °F 9.0 °F 62% 30.03 in 10.0 mi East 3.5 mph - N/A   Partly Cloudy
2:53 AM 21.0 °F 14.6 °F 10.9 °F 65% 30.01 in 10.0 mi ENE 4.6 mph - N/A   Clear
3:53 AM 15.1 °F 5.2 °F 8.1 °F 74% 30.04 in 10.0 mi NE 6.9 mph - N/A   Clear
4:53 AM 16.0 °F - 9.0 °F 74% 30.02 in 10.0 mi Calm Calm - N/A   Clear
5:53 AM 12.9 °F - 7.0 °F 77% 30.06 in 10.0 mi Calm Calm - N/A   Clear
6:53 AM 16.0 °F - 9.0 °F 74% 30.05 in 10.0 mi Calm Calm - N/A   Clear
7:53 AM 19.0 °F 13.9 °F 10.0 °F 68% 30.08 in 10.0 mi North 3.5 mph - N/A   Clear
8:53 AM 26.1 °F - 10.9 °F 53% 30.06 in 10.0 mi Calm Calm - N/A   Mostly Cloudy
9:53 AM 35.1 °F - 10.9 °F 37% 30.04 in 10.0 mi Calm Calm - N/A   Clear
10:53 AM 37.9 °F - 10.0 °F 32% 30.04 in 10.0 mi Calm Calm - N/A   Overcast
11:53 AM 37.0 °F 31.6 °F 15.1 °F 41% 30.02 in 10.0 mi SE 6.9 mph 20.7 mph 0.00 in Rain Light Rain
12:53 PM 42.1 °F 37.7 °F 12.9 °F 31% 30.00 in 10.0 mi NW 6.9 mph 16.1 mph 0.00 in   Overcast
1:53 PM 39.0 °F 32.8 °F 16.0 °F 39% 30.04 in 10.0 mi NW 9.2 mph 19.6 mph N/A   Overcast
2:53 PM 39.9 °F 32.5 °F 18.0 °F 41% 30.02 in 10.0 mi NNW 12.7 mph - N/A   Overcast
3:53 PM 36.0 °F 28.0 °F 24.1 °F 62% 30.09 in 10.0 mi NNE 11.5 mph - N/A   Mostly Cloudy
4:53 PM 39.0 °F 35.7 °F 19.9 °F 46% 30.07 in 10.0 mi NNE 4.6 mph - N/A   Mostly Cloudy
5:53 PM 35.1 °F 31.0 °F 23.0 °F 61% 30.13 in 9.0 mi Variable 4.6 mph - 0.00 in   Overcast
6:53 PM 36.0 °F 32.1 °F 21.9 °F 57% 30.11 in 10.0 mi Variable 4.6 mph - N/A   Mostly Cloudy
7:53 PM 30.9 °F 27.5 °F 21.0 °F 67% 30.14 in 10.0 mi NE 3.5 mph - N/A   Clear
8:53 PM 28.9 °F - 21.0 °F 72% 30.11 in 10.0 mi Calm Calm - N/A   Clear
9:53 PM 26.1 °F - 19.0 °F 75% 30.07 in 10.0 mi Calm Calm - N/A   Clear
10:53 PM 28.0 °F - 19.0 °F 69% 30.04 in 10.0 mi Calm Calm - N/A   Clear
11:53 PM 26.1 °F - 18.0 °F 71% 30.06 in 10.0 mi Calm Calm - N/A   Clear